Stations météo

réclame
Mon MeteoGroup
Torino/Caselle, Italie (16059): Température de l'air & dewpoint: 16.06.2018 19:00:00 - 22.06.2018 19:00:00 (CEST)Torino/Caselle, Italie (16059): Vitesse du vent: 16.06.2018 19:00:00 - 22.06.2018 19:00:00 (CEST)Torino/Caselle, Italie (16059): Direction du vent: 16.06.2018 19:00:00 - 22.06.2018 19:00:00 (CEST)Torino/Caselle, Italie (16059): reduced air pressure: 16.06.2018 19:00:00 - 22.06.2018 19:00:00 (CEST)Torino/Caselle, Italie (16059): visibility: 16.06.2018 19:00:00 - 22.06.2018 19:00:00 (CEST)Torino/Caselle, Italie (16059): Quantités de précipitations: 16.06.2018 19:00:00 - 22.06.2018 19:00:00 (CEST)
Date & Time tt [°C] td [°C] ff [km/h] ff [knt] dd ppp [hPa] vv [km] rr [mm]
22.06.2018 19:00:00 29,0 10,0 15 8 ENE - 10 -
22.06.2018 18:00:00 30,0 13,0 15 8 ENE - 10 -
22.06.2018 17:00:00 29,7 13,8 13 7 E 1012,5 10 0,0
22.06.2018 16:00:00 30,0 14,0 16 9 ENE - 10 -
22.06.2018 15:00:00 29,0 14,0 16 9 ENE - 10 -
22.06.2018 14:00:00 29,3 15,6 15 8 ENE 1012,9 10 -
22.06.2018 13:00:00 29,0 14,0 13 7 ENE - 10 -
22.06.2018 12:00:00 28,0 17,0 8 4 - - 10 -
22.06.2018 11:00:00 26,7 18,2 4 2 - 1012,7 10 0,0
22.06.2018 10:00:00 26,0 19,0 4 2 - - 10 -
22.06.2018 09:00:00 24,0 19,0 4 2 - - 10 -
22.06.2018 08:00:00 22,3 17,2 4 2 - 1011,9 10 -
22.06.2018 07:00:00 21,0 17,0 5 3 NW - 10 -
22.06.2018 06:00:00 21,0 17,0 9 5 WNW - 10 -
22.06.2018 05:00:00 21,8 17,7 5 3 WNW 1011,6 10 0,0
22.06.2018 04:00:00 22,0 18,0 5 3 NNW - 10 -
22.06.2018 03:00:00 23,0 18,0 4 2 - - 10 -
22.06.2018 02:00:00 23,0 17,8 8 4 WNW 1012,6 10 -
22.06.2018 01:00:00 22,0 18,0 4 2 N - 10 -
22.06.2018 00:00:00 24,0 19,0 8 4 N - 10 -
21.06.2018 23:00:00 24,4 19,2 9 5 N 1012,9 10 0,0
21.06.2018 22:00:00 26,0 18,0 4 2 - - 10 -
21.06.2018 21:00:00 28,0 18,0 8 4 ESE - 10 -
21.06.2018 20:00:00 29,6 16,7 9 5 WSW 1012,2 10 -
21.06.2018 19:00:00 30,0 18,0 9 5 WSW - 10 -
21.06.2018 18:00:00 31,0 18,0 5 3 ESE - 10 -
21.06.2018 17:00:00 30,7 16,8 11 6 SW 1013,3 10 0,0
21.06.2018 16:00:00 31,0 17,0 5 3 - - 10 -
21.06.2018 15:00:00 31,0 18,0 9 5 - - 10 -
21.06.2018 14:00:00 29,4 16,6 8 4 - 1015,9 10 -
21.06.2018 13:00:00 29,0 18,0 9 5 SE - 10 -
21.06.2018 12:00:00 28,0 17,0 5 3 - - 10 -
21.06.2018 11:00:00 27,3 17,9 5 3 - 1017,3 10 0,0
21.06.2018 10:00:00 26,0 18,0 4 2 - - 10 -
21.06.2018 09:00:00 25,0 18,0 5 3 SE - 10 -
21.06.2018 08:00:00 23,3 17,1 8 4 N 1018,2 10 -
21.06.2018 07:00:00 21,0 17,0 5 3 N - 10 -
21.06.2018 06:00:00 20,0 17,0 5 3 NNW - 10 -
21.06.2018 05:00:00 20,4 16,9 2 1 - 1018,6 10 0,0
21.06.2018 04:00:00 21,0 17,0 4 2 SSW - 10 -
21.06.2018 03:00:00 23,0 16,0 11 6 NW - 10 -
21.06.2018 02:00:00 22,1 16,5 4 2 - 1019,7 10 -
21.06.2018 01:00:00 23,0 17,0 11 6 NW - 10 -
21.06.2018 00:00:00 23,0 18,0 8 4 N - 10 -
20.06.2018 23:00:00 24,3 17,8 9 5 NNW 1020,1 10 0,0
20.06.2018 22:00:00 25,0 18,0 5 3 NE - 10 -
20.06.2018 21:00:00 27,0 18,0 9 5 E - 10 -
20.06.2018 20:00:00 28,2 18,6 9 5 E 1018,7 10 -
20.06.2018 19:00:00 29,0 17,0 9 5 ENE - 10 -
20.06.2018 18:00:00 30,0 15,0 8 4 E - 10 -
20.06.2018 17:00:00 30,0 16,5 9 5 NE 1019,7 10 0,0
20.06.2018 16:00:00 30,0 16,0 8 4 - - 10 -
20.06.2018 15:00:00 29,0 14,0 8 4 NE - 10 -
20.06.2018 14:00:00 29,0 13,5 9 5 ESE 1021,2 10 -
20.06.2018 13:00:00 29,0 16,0 9 5 SE - 10 -
20.06.2018 12:00:00 28,0 14,0 9 5 E - 10 -
20.06.2018 11:00:00 26,8 17,5 9 5 E 1022,1 10 0,0
20.06.2018 10:00:00 26,0 17,0 5 3 - - 10 -
20.06.2018 09:00:00 26,0 16,0 4 2 - - 10 -
20.06.2018 08:00:00 24,3 16,9 5 3 NW 1021,9 10 -
20.06.2018 07:00:00 22,0 18,0 4 2 - - 10 -
20.06.2018 06:00:00 22,0 17,0 4 2 N - 10 -
20.06.2018 05:00:00 21,6 17,5 4 2 - 1021,4 10 0,0
20.06.2018 04:00:00 24,0 17,0 8 4 NW - 10 -
20.06.2018 03:00:00 23,0 17,0 8 4 NNE - 10 -
20.06.2018 02:00:00 24,4 16,7 5 3 N 1021,7 10 -
20.06.2018 01:00:00 24,0 18,0 9 5 N - 10 -
20.06.2018 00:00:00 24,0 18,0 8 4 N - 10 -
19.06.2018 23:00:00 23,3 17,2 9 5 N 1020,4 10 0,0
19.06.2018 22:00:00 24,0 18,0 9 5 NE - 10 -
19.06.2018 21:00:00 26,0 19,0 9 5 ENE - 10 -
19.06.2018 20:00:00 28,1 17,7 9 5 ENE 1018,7 10 -
19.06.2018 19:00:00 29,0 16,0 9 5 ENE - 10 -
19.06.2018 18:00:00 30,0 16,0 5 3 - - 10 -
19.06.2018 17:00:00 29,7 16,3 5 3 NNE 1019,2 10 0,0
19.06.2018 16:00:00 29,0 15,0 8 4 - - 10 -
19.06.2018 15:00:00 29,0 16,0 8 4 - - 10 -
19.06.2018 14:00:00 28,5 16,3 8 4 E 1020,8 10 -
19.06.2018 13:00:00 28,0 14,0 5 3 - - 10 -
19.06.2018 12:00:00 27,0 14,0 8 4 ENE - 10 -
19.06.2018 11:00:00 26,1 14,0 8 4 E 1021,3 10 0,0
19.06.2018 10:00:00 26,0 13,0 9 5 E - 10 -
19.06.2018 09:00:00 25,0 15,0 4 2 - - 10 -
19.06.2018 08:00:00 23,1 15,1 8 4 NW 1021,1 10 -
19.06.2018 07:00:00 19,0 15,0 2 1 - - 10 -
19.06.2018 06:00:00 21,0 14,0 5 3 W - 10 -
19.06.2018 05:00:00 19,5 15,1 2 1 - 1020,0 10 0,0
19.06.2018 04:00:00 19,0 16,0 4 2 - - 10 -
19.06.2018 03:00:00 21,0 16,0 4 2 - - 10 -
19.06.2018 02:00:00 21,7 15,4 2 1 N 1019,5 10 -
19.06.2018 01:00:00 22,0 17,0 4 2 - - 10 -
19.06.2018 00:00:00 23,0 16,0 9 5 NNW - 10 -
18.06.2018 23:00:00 23,6 16,5 9 5 N 1018,7 10 0,0
18.06.2018 22:00:00 25,0 15,0 4 2 - - 10 -
18.06.2018 21:00:00 27,0 15,0 5 3 NE - 10 -
18.06.2018 20:00:00 27,8 14,8 4 2 ENE 1016,7 10 -
18.06.2018 19:00:00 29,0 14,0 8 4 E - 10 -
18.06.2018 18:00:00 29,0 12,0 9 5 E - 10 -
18.06.2018 17:00:00 28,7 12,1 9 5 ESE 1017,0 10 0,0
18.06.2018 16:00:00 28,0 12,0 11 6 E - 10 -
18.06.2018 15:00:00 28,0 14,0 8 4 - - 10 -
18.06.2018 14:00:00 28,1 14,3 9 5 ENE 1018,0 10 -
18.06.2018 13:00:00 27,0 15,0 9 5 ESE - 10 -
18.06.2018 12:00:00 27,0 14,0 9 5 - - 10 -
18.06.2018 11:00:00 26,3 15,2 5 3 S 1018,3 10 0,0
18.06.2018 10:00:00 24,0 16,0 8 4 SSW - 10 -
18.06.2018 09:00:00 23,0 18,0 5 3 W - 10 -
18.06.2018 08:00:00 21,4 17,3 5 3 ESE 1017,9 10 -
18.06.2018 07:00:00 21,0 17,0 5 3 N - 10 -
18.06.2018 06:00:00 21,0 16,0 8 4 WNW - 10 -
18.06.2018 05:00:00 21,3 17,1 8 4 W 1016,2 10 0,0
18.06.2018 04:00:00 21,0 17,0 4 2 - - 10 -
18.06.2018 03:00:00 21,0 17,0 11 6 NNW - 10 -
18.06.2018 02:00:00 21,9 17,0 9 5 NNW 1015,6 10 -
18.06.2018 01:00:00 22,0 18,0 2 1 - - 10 -
18.06.2018 00:00:00 23,0 18,0 11 6 NNW - 10 -
17.06.2018 23:00:00 22,7 18,1 8 4 ENE 1015,1 10 0,0
17.06.2018 22:00:00 25,0 18,0 8 4 WNW - 10 -
17.06.2018 21:00:00 26,0 18,0 5 3 NNE - 10 -
17.06.2018 20:00:00 26,8 17,5 5 3 NE 1013,6 10 -
17.06.2018 19:00:00 28,0 17,0 5 3 NE - 10 -
17.06.2018 18:00:00 27,0 18,0 8 4 ENE - 10 -
17.06.2018 17:00:00 27,4 17,2 9 5 ENE 1013,8 10 0,0
17.06.2018 16:00:00 29,0 17,0 4 2 - - 10 -
17.06.2018 15:00:00 28,0 16,0 5 3 E - 10 -
17.06.2018 14:00:00 27,4 16,6 4 2 - 1015,1 10 -
17.06.2018 13:00:00 27,0 15,0 5 3 - - 10 -
17.06.2018 12:00:00 26,0 16,0 5 3 - - 10 -
17.06.2018 11:00:00 25,1 16,5 8 4 ESE 1015,8 10 0,0
17.06.2018 10:00:00 24,0 17,0 4 2 - - 10 -
17.06.2018 09:00:00 23,0 17,0 4 2 - - 10 -
17.06.2018 08:00:00 21,6 16,2 2 1 - 1015,5 10 -
17.06.2018 07:00:00 19,0 17,0 4 2 E - 10 -
17.06.2018 06:00:00 20,0 16,0 5 3 NW - 10 -
17.06.2018 05:00:00 19,9 16,1 4 2 - 1014,7 10 0,0
17.06.2018 04:00:00 21,0 16,0 5 3 WNW - 10 -
17.06.2018 03:00:00 22,0 16,0 5 3 WNW - 8 -
17.06.2018 02:00:00 21,9 16,3 9 5 NNW 1014,6 10 -
17.06.2018 01:00:00 23,0 17,0 8 4 NW - 10 -
17.06.2018 00:00:00 22,0 18,0 5 3 N - 10 -
16.06.2018 23:00:00 23,5 16,4 8 4 NNW 1013,8 10 0,0
16.06.2018 22:00:00 24,0 16,0 5 3 NE - 10 -
16.06.2018 21:00:00 25,0 16,0 4 2 NE - 10 -
16.06.2018 20:00:00 24,8 16,0 9 5 ENE 1012,3 10 -
16.06.2018 19:00:00 27,0 15,0 8 4 ENE - 10 -

tt = Température de l'air
td = dewpoint
ff = Vitesse du vent
dd = Direction du vent
ppp = reduced air pressure
vv = visibility
rr = Quantités de précipitations

stations d'obs. à proximité